Time,TemperatureF,DewpointF,PressureIn,WindDirection,WindDirectionDegrees,WindSpeedMPH,WindSpeedGustMPH,Humidity,HourlyPrecipIn,Conditions,Clouds,dailyrainin,SoftwareType,DateUTC
2013-06-05 00:03:00,63.0,-99.9,-100.00,South,188,0.0,-999.0,-999,0.00,,,0.00,,2013-06-05 05:03:00,
2013-06-05 00:12:00,63.0,-99.9,-100.00,South,188,0.0,-999.0,-999,0.00,,,0.00,,2013-06-05 05:12:00,
2013-06-05 00:23:00,63.0,-99.9,-100.00,South,188,0.0,-999.0,-999,0.00,,,0.00,,2013-06-05 05:23:00,
2013-06-05 00:32:00,62.0,-99.9,-100.00,SE,139,0.0,-999.0,-999,0.00,,,0.00,,2013-06-05 05:32:00,
2013-06-05 00:42:00,62.0,-99.9,-100.00,SE,139,0.0,-999.0,-999,0.00,,,0.00,,2013-06-05 05:42:00,
2013-06-05 00:53:00,62.0,-99.9,-100.00,SE,137,1.0,-999.0,-999,0.00,,,0.00,,2013-06-05 05:53:00,
2013-06-05 01:02:00,62.0,-99.9,-100.00,SE,137,1.0,-999.0,-999,0.00,,,0.00,,2013-06-05 06:02:00,
2013-06-05 01:12:00,62.0,-99.9,-100.00,SE,137,1.0,-999.0,-999,0.00,,,0.00,,2013-06-05 06:12:00,
2013-06-05 01:22:00,62.0,-99.9,-100.00,SE,137,1.0,-999.0,-999,0.00,,,0.00,,2013-06-05 06:22:00,
2013-06-05 01:32:00,61.0,-99.9,-100.00,SSE,150,0.0,-999.0,-999,0.00,,,0.00,,2013-06-05 06:32:00,
2013-06-05 01:42:00,61.0,-99.9,-100.00,SSE,150,0.0,-999.0,-999,0.00,,,0.00,,2013-06-05 06:42:00,
2013-06-05 01:52:00,60.0,-99.9,-100.00,SSW,201,0.0,-999.0,-999,0.00,,,0.00,,2013-06-05 06:52:00,
2013-06-05 02:02:00,60.0,-99.9,-100.00,SSW,201,0.0,-999.0,-999,0.00,,,0.00,,2013-06-05 07:02:00,
2013-06-05 02:12:00,60.0,-99.9,-100.00,SSW,201,0.0,-999.0,-999,0.00,,,0.00,,2013-06-05 07:12:00,
2013-06-05 02:22:00,60.0,-99.9,-100.00,SSW,201,0.0,-999.0,-999,0.00,,,0.00,,2013-06-05 07:22:00,
2013-06-05 02:32:00,61.0,-99.9,-100.00,SSE,157,0.0,-999.0,-999,0.00,,,0.00,,2013-06-05 07:32:00,
2013-06-05 02:42:00,61.0,-99.9,-100.00,SSE,157,0.0,-999.0,-999,0.00,,,0.00,,2013-06-05 07:42:00,
2013-06-05 02:52:00,61.0,-99.9,-100.00,SSE,157,0.0,-999.0,-999,0.00,,,0.00,,2013-06-05 07:52:00,
2013-06-05 03:02:00,60.0,-99.9,-100.00,ESE,113,3.0,-999.0,-999,0.00,,,0.00,,2013-06-05 08:02:00,
2013-06-05 03:12:00,60.0,-99.9,-100.00,ESE,113,3.0,-999.0,-999,0.00,,,0.00,,2013-06-05 08:12:00,
2013-06-05 03:22:00,60.0,-99.9,-100.00,ESE,113,3.0,-999.0,-999,0.00,,,0.00,,2013-06-05 08:22:00,
2013-06-05 03:32:00,61.0,-99.9,-100.00,SE,134,2.0,-999.0,-999,0.00,,,0.00,,2013-06-05 08:32:00,
2013-06-05 03:42:00,61.0,-99.9,-100.00,SE,134,2.0,-999.0,-999,0.00,,,0.00,,2013-06-05 08:42:00,
2013-06-05 03:52:00,60.0,-99.9,-100.00,SW,219,0.0,-999.0,-999,0.00,,,0.00,,2013-06-05 08:52:00,
2013-06-05 04:02:00,60.0,-99.9,-100.00,SW,219,0.0,-999.0,-999,0.00,,,0.00,,2013-06-05 09:02:00,
2013-06-05 04:12:00,60.0,-99.9,-100.00,SW,219,0.0,-999.0,-999,0.00,,,0.00,,2013-06-05 09:12:00,
2013-06-05 04:22:00,60.0,-99.9,-100.00,SW,219,0.0,-999.0,-999,0.00,,,0.00,,2013-06-05 09:22:00,
2013-06-05 04:33:00,60.0,-99.9,-100.00,SSE,150,1.0,-999.0,-999,0.00,,,0.00,,2013-06-05 09:33:00,
2013-06-05 04:43:00,60.0,-99.9,-100.00,SSE,150,1.0,-999.0,-999,0.00,,,0.00,,2013-06-05 09:43:00,
2013-06-05 04:53:00,59.0,-99.9,-100.00,SE,131,1.0,-999.0,-999,0.00,,,0.00,,2013-06-05 09:53:00,
2013-06-05 05:03:00,59.0,-99.9,-100.00,SE,131,1.0,-999.0,-999,0.00,,,0.00,,2013-06-05 10:03:00,
2013-06-05 05:13:00,59.0,-99.9,-100.00,SE,131,1.0,-999.0,-999,0.00,,,0.00,,2013-06-05 10:13:00,
2013-06-05 05:23:00,59.0,-99.9,-100.00,SE,131,1.0,-999.0,-999,0.00,,,0.00,,2013-06-05 10:23:00,
2013-06-05 05:33:00,59.0,-99.9,-100.00,SSE,152,0.0,-999.0,-999,0.00,,,0.00,,2013-06-05 10:33:00,
2013-06-05 05:43:00,59.0,-99.9,-100.00,SSE,152,0.0,-999.0,-999,0.00,,,0.00,,2013-06-05 10:43:00,
2013-06-05 05:53:00,59.0,-99.9,-100.00,SSE,152,0.0,-999.0,-999,0.00,,,0.00,,2013-06-05 10:53:00,
2013-06-05 06:02:00,58.0,-99.9,-100.00,SSE,158,0.0,-999.0,-999,0.00,,,0.00,,2013-06-05 11:02:00,
2013-06-05 06:13:00,58.0,-99.9,-100.00,SSE,158,0.0,-999.0,-999,0.00,,,0.00,,2013-06-05 11:13:00,
2013-06-05 06:22:00,58.0,-99.9,-100.00,SSE,158,0.0,-999.0,-999,0.00,,,0.00,,2013-06-05 11:22:00,
2013-06-05 06:33:00,58.0,-99.9,-100.00,SSE,162,0.0,-999.0,-999,0.00,,,0.00,,2013-06-05 11:33:00,
2013-06-05 06:42:00,58.0,-99.9,-100.00,SSE,162,0.0,-999.0,-999,0.00,,,0.00,,2013-06-05 11:42:00,
2013-06-05 06:52:00,58.0,-99.9,-100.00,SSE,162,0.0,-999.0,-999,0.00,,,0.00,,2013-06-05 11:52:00,
2013-06-05 07:02:00,61.0,-99.9,-100.00,SE,145,0.0,-999.0,-999,0.00,,,0.00,,2013-06-05 12:02:00,
2013-06-05 07:12:00,61.0,-99.9,-100.00,SE,145,0.0,-999.0,-999,0.00,,,0.00,,2013-06-05 12:12:00,
2013-06-05 07:22:00,61.0,-99.9,-100.00,SE,145,0.0,-999.0,-999,0.00,,,0.00,,2013-06-05 12:22:00,
2013-06-05 07:32:00,64.0,-99.9,-100.00,SSE,157,1.0,-999.0,-999,0.00,,,0.00,,2013-06-05 12:32:00,
2013-06-05 07:44:00,64.0,-99.9,-100.00,SSE,157,1.0,-999.0,-999,0.00,,,0.00,,2013-06-05 12:44:00,
2013-06-05 07:52:00,66.0,-99.9,-100.00,SE,138,2.0,-999.0,-999,0.00,,,0.00,,2013-06-05 12:52:00,
2013-06-05 08:02:00,66.0,-99.9,-100.00,SE,138,2.0,-999.0,-999,0.00,,,0.00,,2013-06-05 13:02:00,
2013-06-05 08:12:00,66.0,-99.9,-100.00,SE,138,2.0,-999.0,-999,0.00,,,0.00,,2013-06-05 13:12:00,
2013-06-05 08:22:00,66.0,-99.9,-100.00,SE,138,2.0,-999.0,-999,0.00,,,0.00,,2013-06-05 13:22:00,
2013-06-05 08:33:00,68.0,-99.9,-100.00,SE,141,2.0,-999.0,-999,0.00,,,0.00,,2013-06-05 13:33:00,
2013-06-05 08:42:00,68.0,-99.9,-100.00,SE,141,2.0,-999.0,-999,0.00,,,0.00,,2013-06-05 13:42:00,
2013-06-05 08:53:00,68.0,-99.9,-100.00,SE,141,2.0,-999.0,-999,0.00,,,0.00,,2013-06-05 13:53:00,
2013-06-05 09:02:00,71.0,-99.9,-100.00,SSE,164,1.0,-999.0,-999,0.00,,,0.00,,2013-06-05 14:02:00,
2013-06-05 09:13:00,71.0,-99.9,-100.00,SSE,164,1.0,-999.0,-999,0.00,,,0.00,,2013-06-05 14:13:00,
2013-06-05 09:22:00,71.0,-99.9,-100.00,SSE,164,1.0,-999.0,-999,0.00,,,0.00,,2013-06-05 14:22:00,
2013-06-05 09:32:00,71.0,-99.9,-100.00,SE,136,2.0,-999.0,-999,0.00,,,0.00,,2013-06-05 14:32:00,
2013-06-05 09:42:00,71.0,-99.9,-100.00,SE,136,2.0,-999.0,-999,0.00,,,0.00,,2013-06-05 14:42:00,
2013-06-05 09:52:00,71.0,-99.9,-100.00,SE,136,2.0,-999.0,-999,0.00,,,0.00,,2013-06-05 14:52:00,
2013-06-05 10:03:00,73.0,-99.9,-100.00,SSE,163,1.0,-999.0,-999,0.00,,,0.00,,2013-06-05 15:03:00,
2013-06-05 10:13:00,73.0,-99.9,-100.00,SSE,163,1.0,-999.0,-999,0.00,,,0.00,,2013-06-05 15:13:00,
2013-06-05 10:23:00,73.0,-99.9,-100.00,SSE,163,1.0,-999.0,-999,0.00,,,0.00,,2013-06-05 15:23:00,
2013-06-05 10:33:00,73.0,-99.9,-100.00,SE,138,3.0,-999.0,-999,0.00,,,0.00,,2013-06-05 15:33:00,
2013-06-05 10:43:00,73.0,-99.9,-100.00,SE,138,3.0,-999.0,-999,0.00,,,0.00,,2013-06-05 15:43:00,
2013-06-05 10:53:00,74.0,-99.9,-100.00,SSE,147,2.0,-999.0,-999,0.00,,,0.00,,2013-06-05 15:53:00,
2013-06-05 11:04:00,74.0,-99.9,-100.00,SSE,147,2.0,-999.0,-999,0.00,,,0.00,,2013-06-05 16:04:00,
2013-06-05 11:13:00,74.0,-99.9,-100.00,SSE,147,2.0,-999.0,-999,0.00,,,0.00,,2013-06-05 16:13:00,
2013-06-05 11:23:00,74.0,-99.9,-100.00,SSE,147,2.0,-999.0,-999,0.00,,,0.00,,2013-06-05 16:23:00,
2013-06-05 11:32:00,71.0,-99.9,-100.00,West,277,2.0,-999.0,-999,0.00,,,0.00,,2013-06-05 16:32:00,
2013-06-05 11:42:00,71.0,-99.9,-100.00,West,277,2.0,-999.0,-999,0.00,,,0.00,,2013-06-05 16:42:00,
2013-06-05 11:54:00,76.0,-99.9,-100.00,SW,215,1.0,-999.0,-999,0.00,,,0.00,,2013-06-05 16:54:00,
2013-06-05 12:03:00,76.0,-99.9,-100.00,SW,215,1.0,-999.0,-999,0.00,,,0.00,,2013-06-05 17:03:00,
2013-06-05 12:13:00,76.0,-99.9,-100.00,SW,215,1.0,-999.0,-999,0.00,,,0.00,,2013-06-05 17:13:00,
2013-06-05 12:23:00,76.0,-99.9,-100.00,SW,215,1.0,-999.0,-999,0.00,,,0.00,,2013-06-05 17:23:00,
2013-06-05 12:33:00,76.0,-99.9,-100.00,SSW,194,2.0,-999.0,-999,0.00,,,0.00,,2013-06-05 17:33:00,
2013-06-05 12:43:00,76.0,-99.9,-100.00,SSW,194,2.0,-999.0,-999,0.00,,,0.00,,2013-06-05 17:43:00,
2013-06-05 12:52:00,76.0,-99.9,-100.00,SSW,194,2.0,-999.0,-999,0.00,,,0.00,,2013-06-05 17:52:00,
2013-06-05 13:03:00,77.0,-99.9,-100.00,SSW,203,2.0,-999.0,-999,0.00,,,0.00,,2013-06-05 18:03:00,
2013-06-05 13:13:00,77.0,-99.9,-100.00,SSW,203,2.0,-999.0,-999,0.00,,,0.00,,2013-06-05 18:13:00,
2013-06-05 13:23:00,77.0,-99.9,-100.00,SSW,203,2.0,-999.0,-999,0.00,,,0.00,,2013-06-05 18:23:00,
2013-06-05 13:32:00,76.0,-99.9,-100.00,SW,232,4.0,-999.0,-999,0.00,,,0.00,,2013-06-05 18:32:00,
2013-06-05 13:42:00,76.0,-99.9,-100.00,SW,232,4.0,-999.0,-999,0.00,,,0.00,,2013-06-05 18:42:00,
2013-06-05 13:52:00,77.0,-99.9,-100.00,WSW,237,3.0,-999.0,-999,0.00,,,0.00,,2013-06-05 18:52:00,
2013-06-05 14:00:00,77.0,-99.9,-100.00,SW,236,4.0,-999.0,-999,0.00,,,0.00,,2013-06-05 19:00:00,
2013-06-05 14:03:00,77.0,-99.9,-100.00,WSW,237,3.0,-999.0,-999,0.00,,,0.00,,2013-06-05 19:03:00,
2013-06-05 14:13:00,77.0,-99.9,-100.00,WSW,237,3.0,-999.0,-999,0.00,,,0.00,,2013-06-05 19:13:00,
2013-06-05 14:23:00,77.0,-99.9,-100.00,WSW,237,3.0,-999.0,-999,0.00,,,0.00,,2013-06-05 19:23:00,
2013-06-05 14:32:00,77.0,-99.9,-100.00,SW,236,4.0,-999.0,-999,0.00,,,0.00,,2013-06-05 19:32:00,
2013-06-05 14:42:00,77.0,-99.9,-100.00,SW,236,4.0,-999.0,-999,0.00,,,0.00,,2013-06-05 19:42:00,
2013-06-05 14:53:00,77.0,-99.9,-100.00,SW,236,4.0,-999.0,-999,0.00,,,0.00,,2013-06-05 19:53:00,
2013-06-05 15:32:00,74.0,-99.9,-100.00,NE,46,3.0,-999.0,-999,0.00,,,0.00,,2013-06-05 20:32:00,
2013-06-05 15:42:00,74.0,-99.9,-100.00,NE,46,3.0,-999.0,-999,0.00,,,0.00,,2013-06-05 20:42:00,
2013-06-05 15:52:00,74.0,-99.9,-100.00,NNW,339,2.0,-999.0,-999,0.00,,,0.00,,2013-06-05 20:52:00,
2013-06-05 16:02:00,74.0,-99.9,-100.00,NNW,339,2.0,-999.0,-999,0.00,,,0.00,,2013-06-05 21:02:00,
2013-06-05 16:12:00,74.0,-99.9,-100.00,NNW,339,2.0,-999.0,-999,0.00,,,0.00,,2013-06-05 21:12:00,
2013-06-05 16:23:00,74.0,-99.9,-100.00,NNW,339,2.0,-999.0,-999,0.00,,,0.00,,2013-06-05 21:23:00,
2013-06-05 16:33:00,74.0,-99.9,-100.00,NNE,13,5.0,-999.0,-999,0.00,,,0.00,,2013-06-05 21:33:00,
2013-06-05 16:43:00,74.0,-99.9,-100.00,NNE,13,5.0,-999.0,-999,0.00,,,0.00,,2013-06-05 21:43:00,
2013-06-05 16:53:00,74.0,-99.9,-100.00,North,11,4.0,-999.0,-999,0.00,,,0.00,,2013-06-05 21:53:00,
2013-06-05 17:03:00,74.0,-99.9,-100.00,North,11,4.0,-999.0,-999,0.00,,,0.00,,2013-06-05 22:03:00,
2013-06-05 17:13:00,74.0,-99.9,-100.00,North,11,4.0,-999.0,-999,0.00,,,0.00,,2013-06-05 22:13:00,
2013-06-05 17:23:00,74.0,-99.9,-100.00,North,11,4.0,-999.0,-999,0.00,,,0.00,,2013-06-05 22:23:00,
2013-06-05 17:33:00,75.0,-99.9,-100.00,North,2,1.0,-999.0,-999,0.00,,,0.00,,2013-06-05 22:33:00,
2013-06-05 17:43:00,75.0,-99.9,-100.00,North,2,1.0,-999.0,-999,0.00,,,0.00,,2013-06-05 22:43:00,
2013-06-05 17:53:00,74.0,-99.9,-100.00,NE,42,2.0,-999.0,-999,0.00,,,0.00,,2013-06-05 22:53:00,
2013-06-05 18:02:00,74.0,-99.9,-100.00,NE,42,2.0,-999.0,-999,0.00,,,0.00,,2013-06-05 23:02:00,
2013-06-05 18:12:00,74.0,-99.9,-100.00,NE,42,2.0,-999.0,-999,0.00,,,0.00,,2013-06-05 23:12:00,
2013-06-05 18:22:00,74.0,-99.9,-100.00,NE,42,2.0,-999.0,-999,0.00,,,0.00,,2013-06-05 23:22:00,
2013-06-05 18:32:00,73.0,-99.9,-100.00,NE,37,1.0,-999.0,-999,0.00,,,0.00,,2013-06-05 23:32:00,
2013-06-05 18:42:00,73.0,-99.9,-100.00,NE,37,1.0,-999.0,-999,0.00,,,0.00,,2013-06-05 23:42:00,
2013-06-05 18:53:00,73.0,-99.9,-100.00,NNW,347,3.0,-999.0,-999,0.00,,,0.00,,2013-06-05 23:53:00,
2013-06-05 19:00:00,73.0,-99.9,-100.00,North,357,4.0,-999.0,-999,0.00,,,0.00,,2013-06-06 00:00:00,
2013-06-05 19:02:00,73.0,-99.9,-100.00,NNW,347,3.0,-999.0,-999,0.00,,,0.00,,2013-06-06 00:02:00,
2013-06-05 19:12:00,73.0,-99.9,-100.00,NNW,347,3.0,-999.0,-999,0.00,,,0.00,,2013-06-06 00:12:00,
2013-06-05 19:22:00,73.0,-99.9,-100.00,NNW,347,3.0,-999.0,-999,0.00,,,0.00,,2013-06-06 00:22:00,
2013-06-05 19:32:00,73.0,-99.9,-100.00,North,357,4.0,-999.0,-999,0.00,,,0.00,,2013-06-06 00:32:00,
2013-06-05 19:43:00,73.0,-99.9,-100.00,North,357,4.0,-999.0,-999,0.00,,,0.00,,2013-06-06 00:43:00,
2013-06-05 19:52:00,73.0,-99.9,-100.00,North,357,4.0,-999.0,-999,0.00,,,0.00,,2013-06-06 00:52:00,
2013-06-05 20:32:00,72.0,-99.9,-100.00,North,350,5.0,-999.0,-999,0.00,,,0.00,,2013-06-06 01:32:00,
2013-06-05 20:42:00,72.0,-99.9,-100.00,North,350,5.0,-999.0,-999,0.00,,,0.00,,2013-06-06 01:42:00,
2013-06-05 20:53:00,72.0,-99.9,-100.00,North,354,3.0,-999.0,-999,0.00,,,0.00,,2013-06-06 01:53:00,
2013-06-05 21:02:00,72.0,-99.9,-100.00,North,354,3.0,-999.0,-999,0.00,,,0.00,,2013-06-06 02:02:00,
2013-06-05 21:12:00,72.0,-99.9,-100.00,North,354,3.0,-999.0,-999,0.00,,,0.00,,2013-06-06 02:12:00,
2013-06-05 21:22:00,72.0,-99.9,-100.00,North,354,3.0,-999.0,-999,0.00,,,0.00,,2013-06-06 02:22:00,
2013-06-05 21:32:00,70.0,-99.9,-100.00,North,8,2.0,-999.0,-999,0.00,,,0.00,,2013-06-06 02:32:00,
2013-06-05 21:42:00,70.0,-99.9,-100.00,North,8,2.0,-999.0,-999,0.00,,,0.00,,2013-06-06 02:42:00,
2013-06-05 21:52:00,70.0,-99.9,-100.00,North,8,2.0,-999.0,-999,0.00,,,0.00,,2013-06-06 02:52:00,
2013-06-05 22:02:00,71.0,-99.9,-100.00,North,357,7.0,-999.0,-999,0.00,,,0.00,,2013-06-06 03:02:00,
2013-06-05 22:12:00,71.0,-99.9,-100.00,North,357,7.0,-999.0,-999,0.00,,,0.00,,2013-06-06 03:12:00,
2013-06-05 22:22:00,71.0,-99.9,-100.00,North,357,7.0,-999.0,-999,0.00,,,0.00,,2013-06-06 03:22:00,
2013-06-05 22:33:00,70.0,-99.9,-100.00,North,357,8.0,-999.0,-999,0.00,,,0.00,,2013-06-06 03:33:00,
2013-06-05 22:43:00,70.0,-99.9,-100.00,North,357,8.0,-999.0,-999,0.00,,,0.00,,2013-06-06 03:43:00,
2013-06-05 22:53:00,68.0,-99.9,-100.00,NNW,338,6.0,-999.0,-999,0.00,,,0.00,,2013-06-06 03:53:00,
2013-06-05 23:03:00,68.0,-99.9,-100.00,NNW,338,6.0,-999.0,-999,0.00,,,0.00,,2013-06-06 04:03:00,
2013-06-05 23:13:00,68.0,-99.9,-100.00,NNW,338,6.0,-999.0,-999,0.00,,,0.00,,2013-06-06 04:13:00,
2013-06-05 23:23:00,68.0,-99.9,-100.00,NNW,338,6.0,-999.0,-999,0.00,,,0.00,,2013-06-06 04:23:00,
2013-06-05 23:33:00,67.0,-99.9,-100.00,NNW,329,4.0,-999.0,-999,0.00,,,0.00,,2013-06-06 04:33:00,
2013-06-05 23:42:00,67.0,-99.9,-100.00,NNW,329,4.0,-999.0,-999,0.00,,,0.00,,2013-06-06 04:42:00,
2013-06-05 23:53:00,66.0,-99.9,-100.00,NW,308,3.0,-999.0,-999,0.00,,,0.00,,2013-06-06 04:53:00,